Location: Strada George Coșbuc
(47.6577°N, 23.5639°E)
Time: 13:17:19
(UTC+03:00)

X-37B - Visible Passes

Search period start: 20 September 2020 00:00
Search period end: 30 September 2020 00:00
Orbit: 386 x 387 km, 45.0° (Epoch: 18 September)

Date Brightness Start Highest point End Pass type
(mag) Time Alt. Az. Time Alt. Az. Time Alt. Az.
20 Sep 3.3 04:33:17 16° ESE 04:33:17 16° ESE 04:34:04 10° E visible
20 Sep 1.2 06:05:33 20° WSW 06:07:23 41° SSW 06:10:24 10° ESE visible
21 Sep 1.7 05:09:45 36° SE 05:09:45 36° SE 05:11:58 10° ESE visible
22 Sep 1.5 05:46:20 30° SW 05:46:43 31° SSW 05:49:34 10° SE visible
23 Sep 3.3 04:50:43 14° SE 04:50:43 14° SE 04:51:16 10° ESE visible
23 Sep 2.6 06:23:01 12° WSW 06:24:22 15° SSW 06:26:17 10° S visible
24 Sep 2.8 05:27:32 16° SSE 05:27:32 16° SSE 05:28:33 10° SSE visible
